Regional Weather Roundup
Issued by NWS State College, PA

Home | Current Version | Previous Version | Graphics & Text | Print | Product List | Glossary On
Versions: 1 2 3 4 5 6 7 8 9 10 11 12 13 14 15 16 17 18 19 20 21 22 23 24 25 26 27 28 29 30 31 32 33 34 35 36 37 38 39 40 41 42 43 44 45 46 47 48 49 50
000
ASUS41 KCTP 250203
RWRCTP

REGIONAL WEATHER ROUNDUP
NATIONAL WEATHER SERVICE STATE COLLEGE PA
1000 PM EDT SAT SEP 24 2016

Note: "fair" indicates few or no clouds below 12,000 feet with no
significant weather and/or obstructions to visibility.

* = STATION THAT DOES NOT REPORT PRECIPITATION /E.G. RAIN...SNOW...ETC/
    THUNDER OR FOG.

PAZ002>004-007>009-013>016-020>023-029>032-250300-
WESTERN PENNSYLVANIA

CITY           SKY/WX    TMP DP  RH WIND       PRES   REMARKS
ERIE           CLEAR     55  46  71 E3        30.22S
MEADVILLE      CLEAR     51  45  79 NE6       30.23R
FRANKLIN*        N/A     52  43  71 NE7       30.23R
NEW CASTLE     FAIR      57  50  77 NE5       30.22R
BEAVER COUNTY  NOT AVBL
BUTLER*        CLEAR     54  46  76 NE7       30.22R
PITTSBURGH INT CLEAR     64  50  60 N8        30.18R
PITTSBURGH     CLEAR     62  50  64 N5        30.17R
INDIANA*       CLEAR     57  50  77 CALM      30.22R
LATROBE        CLEAR     55  55 100 CALM      30.19R
WASHINGTON CO* CLEAR     55  52  88 CALM      30.19R
$$

PAZ004>006-010>012-017>019-024>028-033>037-041-042-045-046-049>053-250300-
CENTRAL PENNSYLVANIA

CITY           SKY/WX    TMP DP  RH WIND       PRES   REMARKS
BRADFORD       CLEAR     49  44  83 N5        30.22S
DUBOIS         CLEAR     53  44  71 N7        30.20R
CLEARFIELD     CLEAR     55  45  68 NE5       30.21R
JOHNSTOWN      CLEAR     59  52  77 NW5       30.20R
ALTOONA        CLEAR     55  49  80 CALM      30.19R
STATE COLLEGE  PTCLDY    57  45  64 NE5       30.19R
WILLIAMSPORT   CLEAR     54  49  83 CALM      30.19R
SELINSGROVE    CLEAR     54  45  71 N7        30.19R
FT INDIANTOWN  CLEAR     59  44  58 VRB2      30.17R
CAPITAL CITY   CLEAR     58  47  66 CALM      30.17R
HARRISBURG     PTCLDY    60  47  61 N3        30.16R
YORK           CLEAR     50  49  96 CALM      30.16R
$$

PAZ038>040-043-044-047-048-054-055-060>062-067>071-250300-
EASTERN PENNSYLVANIA

CITY           SKY/WX    TMP DP  RH WIND       PRES   REMARKS
SCRANTON       CLEAR     51  46  83 E3        30.20R
MOUNT POCONO   CLEAR     49  39  68 N5        30.19R
ALLENTOWN      CLEAR     54  44  69 N6        30.17R
QUAKERTOWN*    CLEAR     54  46  76 N5        30.17R
READING        CLEAR     59  46  62 VRB3      30.15S
LANCASTER      CLEAR     57  49  74 N7        30.16R
COATESVILLE    CLEAR     59  46  63 N5        30.17R
POTTSTOWN      CLEAR     58  45  62 CALM      30.18R
BLUE BELL      CLEAR     52  50  93 CALM      30.15R
DOYLESTOWN     CLEAR     59  47  64 NE3       30.15R
WILLOW GROVE   NOT AVBL
NORTH PHILA    CLEAR     60  47  61 NE6       30.16R
PHILADELPHIA   CLEAR     64  50  60 N3        30.15R
$$




USA.gov is the U.S. government's official web portal to all federal, state and local government web resources and services.